Regional Weather Roundup
Issued by NWS

Home | Current Version | Previous Version | Text Only | Print | Product List | Glossary On
Versions: 1 2 3 4 5 6 7 8 9 10 11 12 13 14 15 16 17 18 19 20 21 22 23 24 25 26 27 28 29 30 31 32 33 34 35 36 37 38 39 40 41 42 43 44 45 46 47 48 49 50
000
ASUS43 KMKX 300911
RWRWI

WISCONSIN REGIONAL WEATHER ROUNDUP
NATIONAL WEATHER SERVICE MILWAUKEE/SULLIVAN WI
400 AM CDT SAT JUL 30 2016

NOTE: "FAIR" INDICATES FEW OR NO CLOUDS BELOW 12,000 FEET WITH NO
SIGNIFICANT WEATHER AND/OR OBSTRUCTIONS TO VISIBILITY.

WIZ001-002-006>008-014>016-023>028-301000-
NORTHWEST WISCONSIN

CITY           SKY/WX    TMP DP  RH WIND       PRES   REMARKS
SUPERIOR ARPT  CLOUDY    49  49 100 CALM      30.05S FOG
ASHLAND        CLEAR     50  49  96 S3        30.05F
HAYWARD        MOCLDY    54  52  93 N3        30.06S
SIREN          NOT AVBL
CUMBERLAND     PTCLDY    55  54  94 CALM      30.05F
RICE LAKE      CLEAR     57  55  94 CALM      30.06F
CHETEK         MOCLDY    60  58  94 CALM      30.05F
LADYSMITH      PTCLDY    58  57  94 E3        30.08S
EAU CLAIRE     MOCLDY    61  60  97 CALM      30.03S
MENOMONIE      CLOUDY    59  57  93 CALM      30.04S
NEW RICHMOND   MOCLDY    60  59  97 E7        30.03F
OSCEOLA        PTCLDY    59  59 100 CALM      30.06S
$$

WIZ003>005-009-010-017-018-301000-
NORTH CENTRAL WISCONSIN

CITY           SKY/WX    TMP DP  RH WIND       PRES   REMARKS
MANITOWISH WTR CLEAR     55  55 100 CALM      30.08S
ARBOR VITAE    CLEAR     57  55  95 CALM      30.09S
WOODRUFF       CLEAR     57  55  95 CALM      30.09S
RHINELANDER    CLEAR     55  54  96 CALM      30.09S FOG
EAGLE RIVER    MOCLDY    54  54 100 CALM      30.09F
LAND O LAKES   MOCLDY    52  52  99 CALM      30.10F
PHILLIPS       MOCLDY    56  56 100 CALM      30.08S
TOMAHAWK       CLEAR     48  47  96 CALM      30.09S
MEDFORD        CLOUDY    57  57 100 NE5       30.07F
MERRILL        MOCLDY    53  53 100 CALM      30.08F
$$

WIZ029-030-035-036-043>047-301000-
CENTRAL WISCONSIN

CITY           SKY/WX    TMP DP  RH WIND       PRES   REMARKS
WAUSAU         MOCLDY    60  55  83 N3        30.04F
MOSINEE        CLOUDY    59  55  88 NE7       30.06F
MARSHFIELD     CLEAR     61  56  83 NE5       30.04F
STEVENS POINT  MOCLDY    59  56  91 NE6       30.05S
WAUPACA        CLOUDY    66  61  84 CALM      30.03S
WAUTOMA        CLOUDY    64  59  83 NE5       30.03R
WISC RAPIDS    CLOUDY    64  56  75 NE7       30.04F
CAMP DOUGLAS   FOG       59  59 100 W3        30.02S VSB 1
$$

WIZ011>013-019>022-031-037>040-048>050-301000-
NORTHEAST WISCONSIN

CITY           SKY/WX    TMP DP  RH WIND       PRES   REMARKS
ANTIGO         CLEAR     52  51  96 CALM      30.08S
SHAWANO        CLOUDY    64  58  81 NE7       30.05S
OCONTO         CLEAR     59  59 100 N3        30.03S
STURGEON BAY   CLEAR     66  61  84 SE5       30.04S
GREEN BAY      CLEAR     60  59  96 CALM      30.02S
MANITOWOC      MOCLDY    61  60  97 CALM      30.02S
APPLETON       CLOUDY    63  54  72 N6        30.01S
CLINTONVILLE   CLOUDY    61  55  82 N3        30.04S
OSHKOSH        PTCLDY    67  61  81 CALM      30.01R
$$

WIZ032>034-041-042-053>061-301000-
SOUTHWEST WISCONSIN

CITY           SKY/WX    TMP DP  RH WIND       PRES   REMARKS
LA CROSSE      CLOUDY    67  65  93 N3        30.01S
SPARTA         CLOUDY    61  61  99 CALM      30.03S
VIROQUA        CLOUDY    64  64 100 CALM      30.03S
BOSCOBEL       FOG       64  63  96 CALM      30.00F VSB 1/4
PRAIRIE DU CHI CLOUDY    66  63  89 CALM      29.99F
PLATTEVILLE    CLOUDY    64  64 100 N5        30.00S
$$

WIZ056-057-062-063-064-067-068-301000-
SOUTH CENTRAL WISCONSIN

CITY           SKY/WX    TMP DP  RH WIND       PRES   REMARKS
REEDSBURG      CLOUDY    63  62  98 CALM      30.01F
BARABOO/DELLS  CLOUDY    63  59  88 CALM      30.02S
LONE ROCK      CLOUDY    65  62  90 CALM      30.00F
MINERAL POINT  CLOUDY    64  63  94 N3        30.00S
MADISON        CLOUDY    64  59  83 N6        29.99S
MIDDLETON      CLOUDY    65  62  89 CALM      30.00S
WATERTOWN      CLOUDY    64  64 100 NE3       29.99R
MONROE         CLOUDY    64  63  94 N7        29.98S
JANESVILLE     PTCLDY    66  64  94 NE3       29.96S
$$

WIZ051-052-058>065-066-070>072-301000-
SOUTHEAST WISCONSIN

CITY           SKY/WX    TMP DP  RH WIND       PRES   REMARKS
MILWAUKEE      CLOUDY    68  63  84 E9        29.97S
WAUKESHA       PTCLDY    63  57  82 NE5       30.00R
MILWAUKEE/TIMM PTCLDY    64  55  72 NE5       29.99F
RACINE         CLOUDY    68  63  84 E8        29.98F
BURLINGTON     CLEAR     64  63  96 CALM      29.97S
KENOSHA        CLOUDY    67  62  84 E8        29.97S
FOND DU LAC    PTCLDY    62  59  90 CALM      30.01S
SHEBOYGAN      PTCLDY    61  58  90 NE3       30.01S
WEST BEND      PTCLDY    61  57  88 CALM      30.00S
JUNEAU         MOCLDY    63  60  90 N5        30.01S
$$

LSZ147-162-301000-
LAKE SUPERIOR

STATION/POSITION TIME  TEMP    WIND        PRES    WAVE
                       AIR SEA DIR/SP/G            HT/PER
                 (UTC) (F)     (DEG/KT/KT) (MB)    (FT/S)
W MID LAKE BUOY  0850   62 62   50/  4/  4 1017.2F   1
DEVILS ISLAND    0900   64      40/  8/  9 1017.4F
PORT WING        0800   55     170/  4/  4 1017.6F
SAXON HARBOR     0800   58     200/  4/  5 1017.3S
$$

LMZ867-665-643>646-301000-
LAKE MICHIGAN

STATION/POSITION TIME  TEMP    WIND        PRES    WAVE
                       AIR SEA DIR/SP/G            HT/PER
                 (UTC) (F)     (DEG/KT/KT) (MB)    (FT/S)
CHAMBERS ISLAND  0800   70      50/  6/ 10 1017.3
S GREEN BAY BUOY 0800   68 70   70/  8/ 12 1016.1
N MID LAKE BUOY  0850   69 69  100/  8/ 10 1017.1S   1/ 3
NORTHPORT PIER   0800   70     110/  8/  9 1017.3S
SISTER BAY       0821   65     120/  6/  8   N/A
ALGOMA LAKESHORE 0813          170/  7/  9   N/A
KEWAUNEE LAKESHO 0800   67     150/  5/  5 1016.0R
SHEBOYGAN LAKESH 0900   69     100/  9/ 10 1016.0S
PORT WASHINGTON  0800   69      80/  6/ 10 1016.6S
ATWATER BUOY     0900   66 60   90/  6/  8 1016.6F
MILWAUKEE LAKESH 0810   66      60/  7/  7   N/A
S MID LAKE BUOY  0850   68 73   60/ 17/ 21 1014.0R   4/ 5
KENOSHA   LAKESH 0900   68      80/ 16/ 19 1014.2F
$$

TC  - TEMPERATURE IN CELSIUS
VSB - VISIBILITY IN STATUTE MILES
WCI - WIND CHILL INDEX
HX  - HEAT INDEX




USA.gov is the U.S. government's official web portal to all federal, state and local government web resources and services.